TimePDT,TemperatureF,Dew PointF,Humidity,Sea Level PressureIn,VisibilityMPH,Wind Direction,Wind SpeedMPH,Gust SpeedMPH,PrecipitationIn,Events,Conditions,WindDirDegrees,DateUTC
12:15 AM,33.8,8.6,35,30.09,10.0,Calm,Calm,-,N/A,,Clear,0,2013-10-08 07:15:00
12:35 AM,32.0,5.0,32,30.08,10.0,Calm,Calm,-,N/A,,Clear,0,2013-10-08 07:35:00
12:55 AM,33.8,6.8,32,30.08,10.0,Calm,Calm,-,N/A,,Clear,0,2013-10-08 07:55:00
1:15 AM,33.8,8.6,35,30.08,10.0,Calm,Calm,-,N/A,,Clear,0,2013-10-08 08:15:00
1:35 AM,30.2,5.0,34,30.08,10.0,Calm,Calm,-,N/A,,Clear,0,2013-10-08 08:35:00
1:55 AM,30.2,5.0,34,30.08,10.0,Calm,Calm,-,N/A,,Clear,0,2013-10-08 08:55:00
2:15 AM,26.6,3.2,37,30.07,10.0,Calm,Calm,-,N/A,,Clear,0,2013-10-08 09:15:00
2:35 AM,23.0,3.2,43,30.07,10.0,North,3.5,-,N/A,,Clear,350,2013-10-08 09:35:00
2:55 AM,28.4,8.6,43,30.07,10.0,Calm,Calm,-,N/A,,Clear,0,2013-10-08 09:55:00
3:15 AM,28.4,8.6,43,30.06,10.0,Calm,Calm,-,N/A,,Clear,0,2013-10-08 10:15:00
3:35 AM,28.4,6.8,40,30.05,10.0,Calm,Calm,-,N/A,,Clear,0,2013-10-08 10:35:00
3:55 AM,30.2,5.0,34,30.05,10.0,SSW,3.5,-,N/A,,Clear,200,2013-10-08 10:55:00
4:15 AM,26.6,5.0,40,30.05,10.0,Calm,Calm,-,N/A,,Clear,0,2013-10-08 11:15:00
4:35 AM,28.4,8.6,43,30.05,10.0,West,4.6,-,N/A,,Clear,270,2013-10-08 11:35:00
4:55 AM,26.6,6.8,43,30.05,10.0,Calm,Calm,-,N/A,,Clear,0,2013-10-08 11:55:00
5:15 AM,30.2,8.6,40,30.04,10.0,Calm,Calm,-,N/A,,Clear,0,2013-10-08 12:15:00
5:35 AM,26.6,6.8,43,30.04,10.0,Calm,Calm,-,N/A,,Clear,0,2013-10-08 12:35:00
5:55 AM,26.6,5.0,40,30.04,10.0,Calm,Calm,-,N/A,,Clear,0,2013-10-08 12:55:00
6:15 AM,24.8,6.8,46,30.04,10.0,Calm,Calm,-,N/A,,Clear,0,2013-10-08 13:15:00
6:35 AM,23.0,6.8,50,30.04,10.0,NW,3.5,-,N/A,,Clear,320,2013-10-08 13:35:00
6:55 AM,26.6,8.6,47,30.04,10.0,Calm,Calm,-,N/A,,Clear,0,2013-10-08 13:55:00
7:15 AM,26.6,8.6,47,30.04,10.0,WNW,3.5,-,N/A,,Clear,290,2013-10-08 14:15:00
7:35 AM,23.0,6.8,50,30.05,10.0,Calm,Calm,-,N/A,,Clear,0,2013-10-08 14:35:00
7:55 AM,32.0,8.6,38,30.05,10.0,Calm,Calm,-,N/A,,Clear,0,2013-10-08 14:55:00
8:15 AM,39.2,8.6,28,30.05,10.0,Calm,Calm,-,N/A,,Clear,0,2013-10-08 15:15:00
8:35 AM,44.6,8.6,23,30.05,10.0,Calm,Calm,-,N/A,,Clear,0,2013-10-08 15:35:00
8:55 AM,48.2,12.2,24,30.05,10.0,South,6.9,-,N/A,,Clear,170,2013-10-08 15:55:00
9:15 AM,50.0,14.0,24,30.05,10.0,Calm,Calm,-,N/A,,Clear,0,2013-10-08 16:15:00
9:35 AM,53.6,8.6,16,30.04,10.0,NNE,8.1,-,N/A,,Clear,20,2013-10-08 16:35:00
9:55 AM,55.4,6.8,14,30.04,10.0,NNE,6.9,-,N/A,,Clear,30,2013-10-08 16:55:00
10:15 AM,57.2,6.8,13,30.03,10.0,NE,6.9,-,N/A,,Clear,40,2013-10-08 17:15:00
10:35 AM,57.2,6.8,13,30.03,10.0,NE,3.5,-,N/A,,Clear,40,2013-10-08 17:35:00
10:55 AM,59.0,8.6,14,30.02,10.0,Calm,Calm,-,N/A,,Clear,0,2013-10-08 17:55:00
11:15 AM,60.8,6.8,12,30.01,10.0,Calm,Calm,-,N/A,,Clear,0,2013-10-08 18:15:00
11:35 AM,60.8,6.8,12,30.01,10.0,North,3.5,-,N/A,,Clear,360,2013-10-08 18:35:00
11:55 AM,62.6,6.8,11,30.00,7.0,West,4.6,-,N/A,,Clear,260,2013-10-08 18:55:00
12:15 PM,60.8,6.8,12,29.99,10.0,Calm,Calm,-,N/A,,Clear,0,2013-10-08 19:15:00
12:55 PM,64.4,8.6,11,29.97,10.0,ENE,3.5,-,N/A,,Clear,70,2013-10-08 19:55:00
1:15 PM,64.4,3.2,9,29.96,10.0,SW,3.5,-,N/A,,Clear,230,2013-10-08 20:15:00
1:35 PM,64.4,6.8,10,29.94,10.0,WNW,10.4,20.7,N/A,,Clear,290,2013-10-08 20:35:00
1:55 PM,64.4,8.6,11,29.93,10.0,West,18.4,27.6,N/A,,Clear,280,2013-10-08 20:55:00
2:15 PM,64.4,8.6,11,29.92,10.0,WNW,15.0,24.2,N/A,,Clear,290,2013-10-08 21:15:00
2:35 PM,64.4,6.8,10,29.91,10.0,West,13.8,21.9,N/A,,Clear,280,2013-10-08 21:35:00
2:55 PM,64.4,5.0,10,29.90,10.0,West,13.8,23.0,N/A,,Clear,260,2013-10-08 21:55:00
3:15 PM,64.4,6.8,10,29.90,10.0,West,19.6,25.3,N/A,,Clear,280,2013-10-08 22:15:00
3:35 PM,64.4,8.6,11,29.90,10.0,West,21.9,27.6,N/A,,Clear,280,2013-10-08 22:35:00
3:55 PM,62.6,10.4,13,29.89,10.0,West,12.7,31.1,N/A,,Clear,260,2013-10-08 22:55:00
4:15 PM,62.6,10.4,13,29.89,10.0,WSW,15.0,18.4,N/A,,Clear,240,2013-10-08 23:15:00
4:35 PM,59.0,8.6,14,29.89,10.0,West,13.8,23.0,N/A,,Clear,280,2013-10-08 23:35:00
4:55 PM,60.8,10.4,14,29.88,10.0,West,12.7,23.0,N/A,,Clear,260,2013-10-08 23:55:00
5:15 PM,57.2,10.4,16,29.87,10.0,West,11.5,20.7,N/A,,Clear,260,2013-10-09 00:15:00
5:35 PM,57.2,10.4,16,29.87,10.0,West,12.7,20.7,N/A,,Clear,270,2013-10-09 00:35:00
5:55 PM,55.4,14.0,20,29.86,10.0,WSW,12.7,17.3,N/A,,Clear,250,2013-10-09 00:55:00
6:15 PM,55.4,15.8,21,29.86,10.0,SW,12.7,21.9,N/A,,Clear,230,2013-10-09 01:15:00
6:35 PM,53.6,15.8,22,29.88,10.0,West,10.4,19.6,N/A,,Clear,280,2013-10-09 01:35:00
6:55 PM,51.8,17.6,26,29.87,10.0,WSW,12.7,31.1,N/A,,Clear,240,2013-10-09 01:55:00
7:15 PM,51.8,15.8,24,29.87,10.0,WSW,15.0,23.0,N/A,,Clear,240,2013-10-09 02:15:00
7:35 PM,50.0,15.8,26,29.87,10.0,ESE,3.5,20.7,N/A,,Clear,110,2013-10-09 02:35:00
7:55 PM,50.0,15.8,26,29.87,10.0,North,4.6,-,N/A,,Clear,360,2013-10-09 02:55:00
8:15 PM,50.0,17.6,28,29.87,10.0,SW,9.2,-,N/A,,Scattered Clouds,220,2013-10-09 03:15:00
8:35 PM,48.2,17.6,30,29.86,10.0,NW,3.5,-,N/A,,Mostly Cloudy,310,2013-10-09 03:35:00
8:55 PM,50.0,15.8,26,29.85,10.0,Calm,Calm,-,N/A,,Mostly Cloudy,0,2013-10-09 03:55:00
9:15 PM,48.2,15.8,27,29.84,10.0,NNW,4.6,-,N/A,,Mostly Cloudy,340,2013-10-09 04:15:00
9:35 PM,46.4,17.6,32,29.84,10.0,NW,6.9,-,N/A,,Scattered Clouds,320,2013-10-09 04:35:00
9:55 PM,46.4,17.6,32,29.83,10.0,NW,4.6,-,N/A,,Clear,310,2013-10-09 04:55:00
10:15 PM,46.4,17.6,32,29.83,10.0,WNW,13.8,24.2,N/A,,Clear,290,2013-10-09 05:15:00
10:35 PM,44.6,15.8,31,29.82,10.0,SW,3.5,-,N/A,,Scattered Clouds,220,2013-10-09 05:35:00
10:55 PM,48.2,14.0,25,29.82,10.0,West,10.4,17.3,N/A,,Scattered Clouds,260,2013-10-09 05:55:00
11:15 PM,46.4,15.8,29,29.81,10.0,West,12.7,19.6,N/A,,Clear,260,2013-10-09 06:15:00
11:35 PM,46.4,15.8,29,29.79,10.0,ESE,4.6,19.6,N/A,,Clear,110,2013-10-09 06:35:00
11:55 PM,46.4,15.8,29,29.79,10.0,NW,11.5,16.1,N/A,,Clear,310,2013-10-09 06:55:00